Location: Newark
(11.2914°S, 14.4718°E)
Time: 01:37:09
(UTC+00:00)

Vanguard 1 Rocket - Visible Passes

Search period start: 18 October 2019 00:00
Search period end: 28 October 2019 00:00
Orbit: 650 x 4226 km, 34.3° (Epoch: 17 October)

Date Brightness Start Highest point End Pass type
(mag) Time Alt. Az. Time Alt. Az. Time Alt. Az.
18 Oct 9.3 03:21:35 10° SSW 03:24:56 19° SSE 03:29:04 10° ESE visible
18 Oct 9.3 18:29:16 10° NW 18:50:01 74° NE 18:55:41 38° ESE visible
18 Oct 10.2 21:05:26 10° W 21:13:03 27° WSW 21:13:03 27° WSW visible
19 Oct 10.0 17:13:53 10° NW 17:36:18 53° NNE 17:48:50 10° ESE visible
19 Oct 9.1 19:48:12 10° WNW 20:05:27 61° SW 20:06:41 58° SSW visible
20 Oct 8.8 03:24:03 10° SSW 03:28:00 28° SE 03:33:07 10° E visible
20 Oct 9.4 18:31:30 10° NW 18:52:52 90° SW 19:00:18 28° SE visible
20 Oct 10.2 21:09:25 10° W 21:17:40 26° SW 21:17:40 26° SW visible
21 Oct 9.4 02:15:36 11° S 02:16:47 12° SSE 02:18:41 10° SE visible
21 Oct 9.9 17:15:38 10° NW 17:39:18 66° NE 17:52:16 10° ESE visible
21 Oct 9.5 19:51:26 10° WNW 20:08:14 49° SW 20:11:17 41° S visible
22 Oct 8.0 03:26:45 10° SW 03:31:01 45° SE 03:36:43 10° ENE visible
22 Oct 9.6 18:34:03 10° WNW 18:55:37 75° SW 19:04:51 18° SE visible
22 Oct 10.3 21:13:43 10° WSW 21:22:13 23° SW 21:22:13 23° SW visible
23 Oct 8.9 02:19:14 18° SSE 02:20:02 19° SSE 02:23:24 10° ESE visible
23 Oct 9.9 17:17:38 10° NW 17:42:08 80° NE 17:55:28 10° ESE visible
23 Oct 9.8 19:55:03 10° W 20:11:06 40° SW 20:15:44 29° S visible
24 Oct 7.0 03:29:49 11° SW 03:34:03 77° SE 03:39:56 10° ENE visible
24 Oct 9.9 18:36:56 10° WNW 18:58:20 62° SW 19:09:12 11° SE visible
24 Oct 10.4 21:18:12 10° WSW 21:26:33 20° SSW 21:26:33 20° SSW visible
25 Oct 8.3 02:23:06 30° SSE 02:23:14 30° SSE 02:27:25 10° E visible
25 Oct 10.1 17:19:56 10° NW 17:44:50 86° SW 17:58:31 10° SE visible
25 Oct 10.1 19:59:01 10° W 20:14:06 33° SSW 20:19:56 21° SSE visible
26 Oct 6.9 03:33:47 17° WSW 03:37:08 61° NW 03:42:47 10° NE visible
26 Oct 10.2 18:40:11 10° WNW 19:01:06 52° SW 19:12:21 10° SE visible
26 Oct 10.4 21:22:42 10° WSW 21:30:21 18° SSW 21:30:35 18° SSW visible
27 Oct 7.7 02:27:09 45° ESE 02:27:09 45° ESE 02:30:59 10° ENE visible
27 Oct 10.3 17:22:32 10° WNW 17:47:28 74° SW 18:01:29 10° SE visible
27 Oct 10.3 20:03:15 10° W 20:17:18 29° SSW 20:23:48 16° SSE visible
